Regional Weather Roundup
Issued by NWS Goodland, KS

Home | Current Version | Previous Version | Text Only | Print | Product List | Glossary On
Versions: 1 2 3 4 5 6 7 8 9 10 11 12 13 14 15 16 17 18 19 20 21 22 23 24 25 26 27 28 29 30 31 32 33 34 35 36 37 38 39 40 41 42 43 44 45 46 47 48 49 50
000
ASUS43 KGLD 201308
RWRGLD

GOODLAND FORECAST AREA HOURLY WEATHER ROUNDUP
NATIONAL WEATHER SERVICE GOODLAND KS
700 AM MDT MON OCT 20 2014

...OFFICIAL OBSERVATIONS...

CITY           SKY/WX    TMP DP  RH WIND       PRES   REMARKS
GOODLAND KS    CLEAR     39  36  89 W5        30.14S
HILL CITY KS   CLEAR     42  40  92 W5        30.10R
IMPERIAL NEB   CLEAR     38  32  79 W5        30.13R
MCCOOK NEB     CLEAR     38  36  92 W6        30.11R
AKRON CO       CLEAR     50  38  63 S9        30.15S
BURLINGTON CO  CLEAR     38  35  89 W7        30.15S
LIMON CO       CLEAR     35  33  92 NW5       30.20R
$$

...UNOFFICIAL OBSERVATIONS...

CITY           SKY/WX    TMP DP  RH WIND       PRES   REMARKS
COLBY KS       CLEAR     39  39 100 W6        30.13R
GOVE KS          N/A     43  32  65 MISG        N/A
NORTON KS      CLEAR     39  36  87 W3        30.09R
SHARON SPRINGS   N/A     42  40  91 W5          N/A
TRENTON NEB      N/A     42  32  68 CALM        N/A
KIT CARSON CO    N/A     39  35  87 CALM        N/A
YUMA CO          N/A     38  34  87 W6          N/A
$$


USA.gov is the U.S. government's official web portal to all federal, state and local government web resources and services.